Location: ?
(35.4554°N, 139.3092°E)
Time: 22:54:52
(UTC+00:00)

In-Cosmos 22 - Pass Details

Date: 21 April 2021
Orbit: 784 x 877 km, 81.2° (Epoch: 10 May)

Event Time Altitude Azimuth Distance (km) Brightness Sun altitude
Rises 18:59:45 0° 184° (S) 3,449 7.1 -12.7°
Reaches altitude 10° 19:02:10 10° 184° (S) 2,519 6.4 -12.3°
Maximum altitude 19:07:55 83° 97° (E) 888 4.4 -11.2°
Drops below altitude 10° 19:13:41 10° 10° (N) 2,525 7.2 -10.1°
Sets 19:16:07 0° 10° (N) 3,458 7.9 -9.6°
